Regional Weather Roundup
Issued by NWS Sioux Falls, SD

Home | Current Version | Previous Version | Text Only | Print | Product List | Glossary On
Versions: 1 2 3 4 5 6 7 8 9 10 11 12 13 14 15 16 17 18 19 20 21 22 23 24 25 26 27 28 29 30 31 32 33 34 35 36 37 38 39 40 41 42 43 44 45 46 47 48 49 50
000
ASUS43 KFSD 101410
RWRFSD

WEATHER ROUNDUP FOR SE SOUTH DAKOTA/SW MINNESOTA/NW IOWA
NATIONAL WEATHER SERVICE SIOUX FALLS SD
800 AM CST SAT DEC 10 2016

NOTE: "FAIR" INDICATES FEW OR NO CLOUDS BELOW 12,000 FEET WITH NO
SIGNIFICANT WEATHER AND OR OBSTRUCTIONS TO VISIBILITY.


SDZ038>040-050-052>070-101500-
SOUTHEAST SOUTH DAKOTA

CITY           SKY/WX    TMP DP  RH WIND       PRES   REMARKS
BROOKINGS      LGT SNOW   3   0  85 E9        30.35F FOG     WCI -11
CHAMBERLAIN    LGT SNOW   6   2  84 E8        30.28F WCI  -7
HURON          LGT SNOW   5   2  87 E6        30.35F FOG     WCI  -6
MADISON        FLURRIES   7   5  92 E12       30.34F WCI  -9
MITCHELL       LGT SNOW   9   6  88 E10       30.35F FOG     WCI  -5
SIOUX FALLS    LGT SNOW  10   7  87 E9        30.37F FOG     WCI  -3
WINNER         CLOUDY     7   2  80 E12       30.22S WCI  -8
YANKTON        CLOUDY    14  10  85 E7        30.33F VSB 1   WCI   4
$$

MNZ071-072-080-081-089-090-097-098-101500-
SOUTHWEST MINNESOTA

CITY           SKY/WX    TMP DP  RH WIND       PRES   REMARKS
FAIRMONT       FLURRIES   7   2  80 NE6       30.46F WCI  -3
JACKSON        CLOUDY     7   3  85 E7        30.41F WCI  -5
LUVERNE        LGT SNOW   9   5  85 E10       30.39F WCI  -6
MARSHALL       FLURRIES   1  -3  83 NE6       30.45F WCI -10
MONTEVIDEO     CLOUDY     0  -6  78 CALM      30.48F
PIPESTONE      LGT SNOW   7   1  78 E10       30.35F WCI  -8
REDWOOD FALLS  CLOUDY     2  -4  76 VRB3      30.48F
TRACY          CLOUDY     4   1  88 NE6       30.43F WCI  -7
WINDOM         CLOUDY     5   1  85 MISG      30.42F
WORTHINGTON    LGT SNOW   6   3  87 E9        30.40F FOG     WCI  -8
$$

IAZ001>003-012>014-020>022-031-032-NEZ013-014-SDZ071-101500-
NORTHWEST IOWA

CITY           SKY/WX    TMP DP  RH WIND       PRES   REMARKS
CHEROKEE       LGT SNOW  15  13  92 E12       30.40F WCI   2
DENISON        LGT SNOW  21  18  86 E6        30.38F WCI  14
ESTHERVILLE    CLOUDY     7   4  87 E7        30.43F WCI  -5
LE MARS        LGT SNOW  18  14  86 E8        30.39F WCI   7
ORANGE CITY    LGT SNOW  14  12  92 CALM      30.36F
SHELDON        CLOUDY    10   9  92 E13       30.36F WCI  -5
SIOUX CITY     LGT SNOW  21  16  81 SE7       30.39F WCI  12
SPENCER        LGT SNOW  10   6  84 E9        30.42F FOG     WCI  -3
STORM LAKE     FLURRIES  14  12  92 E13       30.39F WCI   0
$$

ABBREVIATIONS USED IN REMARKS
   TC - TEMPERATURE IN CELSIUS
  WCI - WIND CHILL INDEX
   HX - HEAT INDEX
  VSB - VISIBILITY




USA.gov is the U.S. government's official web portal to all federal, state and local government web resources and services.